Other Public Products
Issued by NWS Charleston, SC

Current Version | Previous Version | Graphics & Text | Print | Product List | Glossary On
Versions: 1 2 3 4 5 6 7 8 9 10 11 12 13 14 15 16 17 18 19 20 21 22 23 24 25 26 27 28 29 30 31 32 33 34 35 36 37 38 39 40 41 42 43 44 45 46 47 48 49 50
813
FPUS82 KCHS 210712
OPUCHS

TEST...KCHS/KSAV Gateway Observations...TEST
National Weather Service Charleston SC
200 AM EST SUN JAN 21 2018

NOTE: "fair" indicates few or no clouds below 12,000 feet with no
significant weather and/or obstructions to visibility.

SCZ050-WAZ558-NCZ071-TXZ119-213-PAZ071-DCZ001-FLZ074-172-MI076-
NYZ176-178-MAZ016-IL014-TNZ027-NJZ106-GAZ044-MD014-210800-

...Gateway Observations for Charleston International...

CITY           SKY/WX    TMP DP  RH WIND       PRES   REMARKS
Chas Airport   MOCLDY    49  30  48 CALM      30.23F
Seattle        CLOUDY    48  35  60 S18G25    29.94F
Charlotte      FAIR      41  32  70 S3        30.20F
Dallas DFW     MOCLDY    65  58  78 S16G25    29.90S
Dallas Love    MOCLDY    63  59  87 S18G25    29.92F
Philladelphia  FAIR      33  29  85 CALM      30.11R
Wash National  FAIR      38  32  79 W3        30.13R
Baltimore      FAIR      31  28  89 NW6       30.10S WCI  25
Miami          CLOUDY    72  64  76 E8        30.17F
Detroit        CLOUDY    36  33  89 SW7       30.06S WCI  30
Newark         FAIR      39  28  64 W7        30.07R WCI  34
Laguardia      FAIR      43  28  55 NW3       30.06R
J F K          FAIR      32  28  85 SW7       30.08R WCI  26
Boston Logan   MOCLDY    40  28  62 W8        29.98R WCI  34
Ft. Lauderdale MOCLDY    70  64  81 E14       30.16F
Chicago O`Hare CLOUDY    39  35  86 S3        29.97F
Chicago Midway CLOUDY    40  37  89 S7        29.99S WCI  35
Houston Bush   CLOUDY    67  65  93 S12       30.03F
Houston Hobby  CLOUDY    65  65 100 S12       30.03F
Nashville      MOCLDY    50  36  58 S6        30.16S
Atlanta        FAIR      44  38  79 NW6       30.24R

$$

GAZ044-118-TXZ119-213-NCZ071-DCZ001-MDZ014-506-PAZ021-071-NJZ106-
NYZ176-178-MAZ106-OHZ011-021-055-MIZ076-KYZ091-ILZ014-INZ047-
MNZ060-ONZ431-210800-

...Gateway Observations for Savannah International...

CITY           SKY/WX    TMP DP  RH WIND       PRES   REMARKS
Savannah Arpt  FAIR      47  31  53 W5        30.25F
Atlanta        FAIR      44  38  79 NW6       30.24R
Charlotte      FAIR      41  32  70 S3        30.20F
Dallas DFW     MOCLDY    65  58  78 S16G25    29.90S
Houston Bush   CLOUDY    67  65  93 S12       30.03F
Wash National  FAIR      38  32  79 W3        30.13R
Wash Dulles    FAIR      31  28  89 CALM      30.12R
Baltimore      FAIR      31  28  89 NW6       30.10S WCI  25
Philadelphia   FAIR      33  29  85 CALM      30.11R
Newark         FAIR      39  28  64 W7        30.07R WCI  34
Laguardia      FAIR      43  28  55 NW3       30.06R
J F K          FAIR      32  28  85 SW7       30.08R WCI  26
Boston         MOCLDY    40  28  62 W8        29.98R WCI  34
Pittsburg      CLOUDY    42  33  70 SW7       30.10F
Akron          CLOUDY    39  30  70 SW8       30.08S WCI  33
Cleveland      CLOUDY    40  34  79 S5        30.11R WCI  37
Cincinnati     CLOUDY    47  43  86 SW6       30.09S
Columbus       DRZL/FOG  37  37 100 SE3       30.11S VSB 3/4
Detroit        CLOUDY    36  33  89 SW7       30.06S WCI  30
Chicago O`Hare CLOUDY    39  35  86 S3        29.97F
Minneapolis    CLOUDY    35  32  88 N3        29.95S
Indianapolis   FOG       39  39 100 SE3       30.06F VSB 1/4
Toronto Canada CLOUDY    32  27  80 SW5       30.04R WCI  27

$$




USA.gov is the U.S. government's official web portal to all federal, state and local government web resources and services.